Ketchikan, AK

3:30 AM AKST on January 21, 2019 (GMT -0900)
Ketchikan International

Weather History for PAKT - November, 2018

Change the Weather History Date:

Friday, November 16, 2018

  Actual Average Record
Temperature  
Mean Temperature 42 °F -  
Max Temperature 44 °F 44 °F 52 °F (1949)
Min Temperature 41 °F 33 °F 16 °F (1973)
Degree Days  
Heating Degree Days 22    
Moisture  
Dew Point 39 °F    
Average Humidity 86    
Maximum Humidity 93    
Minimum Humidity 81    
Precipitation  
Precipitation 0.00 in - - ()
Sea Level Pressure  
Sea Level Pressure 30.36 in    
Wind  
Wind Speed 1 mph (SE)    
Max Wind Speed 8 mph    
Max Gust Speed -    
Visibility 10 miles    
Events      
Averages and records for this station are not official NWS values.
T = Trace of Precipitation, MM = Missing Value Source: NWS Daily Summary

Daily Weather History Graph

Daily Weather History Graph

Search for Another Location

Airport or City:

Astronomy

Nov. 16, 2018 Rise Set
Actual Time 7:22 AM AKST 3:39 PM AKST
Civil Twilight 6:41 AM AKST 4:21 PM AKST
Nautical Twilight 5:56 AM AKST 5:06 PM AKST
Astronomical Twilight 5:12 AM AKST 5:49 PM AKST
Moon 1:58 PM AKST (11/16) No Moon Set
Length of Visible Light 9h 40m
Length of Day
8h 16m
Waxing Gibbous, 62% of the Moon is Illuminated
Nov 16
Waxing Gibbous
Nov 22
Full
Nov 29
Last Quarter
Dec 6
New
Dec 15
First Quarter

Hourly Weather History & Observations

Time (AKST) Temp. Windchill Dew Point Humidity Pressure Visibility Wind Dir Wind Speed Gust Speed Precip Events Conditions
12:53 AM 43.0 °F - 39.9 °F 89% 30.35 in 10.0 mi Calm Calm - N/A   Overcast
1:53 AM 43.0 °F - 41.0 °F 93% 30.35 in 10.0 mi Calm Calm - N/A   Overcast
2:53 AM 43.0 °F - 39.9 °F 89% 30.36 in 10.0 mi Calm Calm - N/A   Overcast
3:53 AM 43.0 °F 41.3 °F 37.9 °F 82% 30.36 in 10.0 mi WNW 3.5 mph - N/A   Overcast
4:53 AM 42.1 °F - 37.9 °F 85% 30.36 in 10.0 mi Calm Calm - N/A   Overcast
5:09 AM 42.1 °F - 39.0 °F 89% 30.36 in 10.0 mi Calm Calm - N/A   Overcast
5:53 AM 42.1 °F 40.2 °F 39.0 °F 89% 30.35 in 10.0 mi WNW 3.5 mph - N/A   Overcast
5:59 AM 42.1 °F - 37.9 °F 85% 30.35 in 10.0 mi Calm Calm - N/A   Overcast
6:53 AM 41.0 °F - 37.9 °F 89% 30.36 in 10.0 mi Calm Calm - N/A   Overcast
7:53 AM 41.0 °F - 37.9 °F 89% 30.37 in 10.0 mi Calm Calm - N/A   Mostly Cloudy
8:53 AM 41.0 °F - 39.2 °F 93% 30.37 in 10.0 mi Calm Calm - N/A   Mostly Cloudy
9:53 AM 42.8 °F - 37.4 °F 81% 30.38 in 10.0 mi Calm Calm - N/A   Mostly Cloudy
10:53 AM 43.0 °F 40.3 °F 37.9 °F 82% 30.38 in 10.0 mi NNW 4.6 mph - N/A   Scattered Clouds
11:53 AM 42.8 °F - 37.4 °F 81% 30.38 in 10.0 mi Calm Calm - N/A   Partly Cloudy
12:53 PM 44.6 °F - 39.2 °F 81% 30.36 in 10.0 mi Calm Calm - N/A   Clear
1:53 PM 44.6 °F - 39.2 °F 81% 30.36 in 10.0 mi Calm Calm - N/A   Partly Cloudy
2:53 PM 44.6 °F 43.1 °F 39.2 °F 81% 30.36 in 10.0 mi NW 3.5 mph - N/A   Scattered Clouds
3:53 PM 43.0 °F - 39.0 °F 86% 30.36 in 10.0 mi Calm Calm - N/A   Overcast
4:53 PM 43.0 °F 40.3 °F 39.9 °F 89% 30.35 in 10.0 mi SSE 4.6 mph - N/A   Overcast
5:53 PM 42.8 °F 39.3 °F 39.2 °F 87% 30.35 in 10.0 mi SE 5.8 mph - N/A   Overcast
6:53 PM 42.8 °F 40.1 °F 39.2 °F 87% 30.35 in 10.0 mi SE 4.6 mph - N/A   Overcast
7:53 PM 42.8 °F 39.3 °F 39.2 °F 87% 30.35 in 10.0 mi SE 5.8 mph - N/A   Overcast
8:53 PM 43.0 °F 39.5 °F 39.9 °F 89% 30.35 in 10.0 mi SE 5.8 mph - N/A   Overcast
9:53 PM 43.0 °F 40.3 °F 39.9 °F 89% 30.34 in 10.0 mi SE 4.6 mph - N/A   Overcast
10:53 PM 43.0 °F 40.3 °F 39.9 °F 89% 30.34 in 10.0 mi SE 4.6 mph - N/A   Overcast
11:53 PM 43.0 °F 38.2 °F 39.0 °F 86% 30.33 in 10.0 mi ESE 8.1 mph - N/A   Overcast